EW1958 Weather Reports


Display with metric or nautical units.
time (UTC)temp
F
wind
direction
speed
MPH
gust
MPH
rain 1hr
in
rain 24hr
in
rain mn
in
humidity
%
barometer
mb
20260503203908 80 68 1.0 2.0 0.00 0.00 0.00 44 1014.9
20260503203631 80 68 1.0 2.0 0.00 0.00 0.00 44 1014.9
20260503203129 81 70 0.0 2.0 0.00 0.00 0.00 44 1015.0
20260503202628 80 265 0.0 2.0 0.00 0.00 0.00 44 1014.9
20260503202127 80 265 0.0 2.0 0.00 0.00 0.00 43 1014.9
20260503201624 80 265 0.0 2.0 0.00 0.00 0.00 43 1015.0
20260503201121 80 273 0.0 2.0 0.00 0.00 0.00 46 1015.1
20260503200621 79 273 0.0 2.0 0.00 0.00 0.00 48 1015.1
20260503200121 79 273 0.0 2.0 0.00 0.00 0.00 48 1015.3
20260503195856 78 273 0.0 2.0 0.00 0.00 0.00 50 1015.5
20260503195620 78 273 0.0 2.0 0.00 0.00 0.00 50 1015.5
20260503195131 78 273 0.0 3.0 0.00 0.00 0.00 47 1015.6
20260503195120 78 273 0.0 3.0 0.00 0.00 0.00 49 1015.5
20260503194113 78 69 0.0 2.0 0.00 0.00 0.00 46 1015.6
20260503193613 78 76 0.0 2.0 0.00 0.00 0.00 47 1015.8
20260503193323 78 261 0.0 2.0 0.00 0.00 0.00 50 1015.8
20260503192854 78 261 0.0 2.0 0.00 0.00 0.00 46 1015.9
20260503192849 78 261 0.0 2.0 0.00 0.00 0.00 48 1015.8
20260503192612 78 261 0.0 2.0 0.00 0.00 0.00 48 1015.8
20260503192319 78 261 0.0 2.0 0.00 0.00 0.00 46 1015.9
20260503191603 78 261 0.0 2.0 0.00 0.00 0.00 48 1016.0
20260503191341 78 261 1.0 2.0 0.00 0.00 0.00 47 1016.0
20260503191100 78 261 1.0 2.0 0.00 0.00 0.00 47 1016.0
20260503190602 78 261 0.0 2.0 0.00 0.00 0.00 47 1015.9
20260503185601 78 348 0.0 2.0 0.00 0.00 0.00 51 1016.1
20260503185101 78 348 0.0 2.0 0.00 0.00 0.00 50 1016.1
20260503184815 78 348 0.0 2.0 0.00 0.00 0.00 51 1016.1
20260503184100 77 348 0.0 2.0 0.00 0.00 0.00 53 1016.2
20260503183601 76 340 0.0 2.0 0.00 0.00 0.00 50 1016.2
20260503183101 76 31 0.0 2.0 0.00 0.00 0.00 52 1016.2
20260503182600 76 70 0.0 2.0 0.00 0.00 0.00 50 1016.3
20260503182340 76 5 0.0 2.0 0.00 0.00 0.00 52 1016.3
20260503182101 76 5 0.0 2.0 0.00 0.00 0.00 52 1016.3
20260503181600 76 72 0.0 2.0 0.00 0.00 0.00 55 1016.3
20260503181102 76 65 0.0 2.0 0.00 0.00 0.00 50 1016.3
20260503180600 76 297 0.0 2.0 0.00 0.00 0.00 52 1016.3
20260503175619 74 297 0.0 2.0 0.00 0.00 0.00 54 1016.6
20260503175608 75 297 0.0 2.0 0.00 0.00 0.00 56 1016.4
20260503175312 74 297 0.0 2.0 0.00 0.00 0.00 54 1016.6
20260503174601 74 67 0.0 2.0 0.00 0.00 0.00 59 1016.7
20260503174101 73 74 0.0 2.0 0.00 0.00 0.00 57 1016.7
20260503173601 73 74 0.0 2.0 0.00 0.00 0.00 56 1016.8
20260503173101 73 57 0.0 2.0 0.00 0.00 0.00 60 1016.9
20260503172600 72 57 0.0 2.0 0.00 0.00 0.00 61 1017.0
20260503172059 72 57 0.0 2.0 0.00 0.00 0.00 61 1016.9
20260503171559 71 57 0.0 2.0 0.00 0.00 0.00 61 1017.0
20260503171059 70 284 0.0 2.0 0.00 0.00 0.00 62 1017.0
20260503170557 70 69 0.0 2.0 0.00 0.00 0.00 61 1017.0
20260503150744 52 177 0.0 2.0 0.00 0.00 0.00 94 1017.2
20260503140243 49 0.0 0.0 0.00 0.00 0.00 94 1017.0
20260503131157 49 0.0 0.0 0.00 0.00 0.00 93 1016.8
20260503130445 49 0.0 0.0 0.00 0.00 0.00 93 1016.9
20260503130216 49 0.0 0.0 0.00 0.00 0.00 93 1016.9
20260503120130 49 0.0 0.0 0.00 0.00 0.00 91 1017.0
20260503110803 50 0.0 0.0 0.00 0.00 0.00 90 1017.2
20260503110513 50 0.0 0.0 0.00 0.00 0.00 90 1017.3
20260503100258 51 177 0.0 0.0 0.00 0.00 0.00 89 1017.3
20260503090230 52 177 0.0 0.0 0.00 0.00 0.00 87 1017.4
20260503081218 53 177 0.0 0.0 0.00 0.00 0.00 85 1017.5
20260503080951 53 177 0.0 0.0 0.00 0.00 0.00 85 1017.5
20260503080716 53 177 0.0 0.0 0.00 0.00 0.00 85 1017.5
20260503080215 53 177 0.0 0.0 0.00 0.00 0.00 84 1017.5
20260503072704 54 177 0.0 0.0 0.00 0.00 0.00 83 1017.4
20260503072224 54 177 0.0 0.0 0.00 0.00 0.00 83 1017.3
20260503072213 54 177 0.0 0.0 0.00 0.00 0.00 83 1017.3
20260503071916 54 177 0.0 0.0 0.00 0.00 0.00 83 1017.3
20260503071201 54 177 0.0 0.0 0.00 0.00 0.00 83 1017.3
20260503070700 54 177 0.0 0.0 0.00 0.00 0.00 83 1017.4
20260503070202 54 177 0.0 0.0 0.00 0.00 0.00 83 1017.3
20260503054642 57 177 0.0 0.0 0.00 0.00 0.00 76 1017.2
20260503054142 57 177 0.0 0.0 0.00 0.00 0.00 75 1017.2
20260503053639 57 177 0.0 0.0 0.00 0.00 0.00 75 1017.2
20260503053138 58 177 0.0 0.0 0.00 0.00 0.00 75 1017.2
20260503052850 58 178 0.0 0.0 0.00 0.00 0.00 75 1017.2
20260503052138 58 177 0.0 0.0 0.00 0.00 0.00 75 1017.2
20260503051915 58 177 0.0 0.0 0.00 0.00 0.00 76 1017.2
20260503051637 58 177 0.0 0.0 0.00 0.00 0.00 76 1017.2
20260503051136 58 177 0.0 0.0 0.00 0.00 0.00 76 1017.3
20260503050911 59 177 0.0 0.0 0.00 0.00 0.00 76 1017.1
20260503050635 59 177 0.0 0.0 0.00 0.00 0.00 76 1017.1
20260503050135 59 177 0.0 0.0 0.00 0.00 0.00 75 1017.2
20260503045634 59 177 0.0 0.0 0.00 0.00 0.00 75 1017.2
20260503045346 60 177 0.0 0.0 0.00 0.00 0.00 73 1017.2
20260503044634 60 177 0.0 0.0 0.00 0.00 0.00 72 1017.1
20260503044131 60 177 0.0 0.0 0.00 0.00 0.00 72 1017.0
20260503043630 60 177 0.0 0.0 0.00 0.00 0.00 70 1017.1
20260503043407 61 177 0.0 0.0 0.00 0.00 0.00 71 1016.9
20260503043130 61 177 0.0 0.0 0.00 0.00 0.00 71 1016.9
20260503042637 61 177 0.0 0.0 0.00 0.00 0.00 71 1016.8
20260503042628 61 177 0.0 0.0 0.00 0.00 0.00 69 1016.9
20260503041626 61 177 0.0 0.0 0.00 0.00 0.00 70 1016.8
20260503041131 62 177 0.0 0.0 0.00 0.00 0.00 70 1016.7
20260503040624 62 177 0.0 0.0 0.00 0.00 0.00 70 1016.6
20260503040151 63 177 0.0 2.0 0.00 0.00 0.00 69 1016.6
20260503040140 62 177 0.0 2.0 0.00 0.00 0.00 71 1016.6
20260503035901 63 177 0.0 0.0 0.00 0.00 0.00 68 1016.4
20260503035627 63 177 0.0 2.0 0.00 0.00 0.00 69 1016.6
20260503034620 63 177 0.0 0.0 0.00 0.00 0.00 66 1016.3
20260503034118 64 177 0.0 0.0 0.00 0.00 0.00 66 1016.3
20260503033854 64 177 0.0 0.0 0.00 0.00 0.00 64 1016.1
20260503033616 64 177 0.0 0.0 0.00 0.00 0.00 64 1016.1
20260503033354 64 177 0.0 0.0 0.00 0.00 0.00 63 1016.0
20260503033116 64 177 0.0 0.0 0.00 0.00 0.00 63 1016.0
20260503032613 64 177 0.0 0.0 0.00 0.00 0.00 65 1016.0
20260503032112 65 177 0.0 0.0 0.00 0.00 0.00 66 1015.9
20260503031612 65 177 0.0 2.0 0.00 0.00 0.00 67 1016.0
20260503031320 65 177 0.0 2.0 0.00 0.00 0.00 66 1015.9
20260503030608 65 177 0.0 2.0 0.00 0.00 0.00 66 1015.8
20260503030105 66 177 0.0 2.0 0.00 0.00 0.00 67 1015.8
20260503025814 66 177 0.0 0.0 0.00 0.00 0.00 66 1015.8
20260503025103 66 177 0.0 1.0 0.00 0.00 0.00 63 1015.8
20260503024838 66 177 0.0 1.0 0.00 0.00 0.00 64 1015.8
20260503024602 66 177 0.0 1.0 0.00 0.00 0.00 64 1015.8
20260503024336 66 177 0.0 0.0 0.00 0.00 0.00 66 1015.8
20260503024101 66 177 0.0 0.0 0.00 0.00 0.00 66 1015.8
20260503023816 67 177 0.0 0.0 0.00 0.00 0.00 63 1015.7
20260503023337 67 177 0.0 2.0 0.00 0.00 0.00 63 1015.6
20260503023101 67 177 0.0 2.0 0.00 0.00 0.00 63 1015.6
20260503022600 67 177 0.0 2.0 0.00 0.00 0.00 63 1015.7
20260503022314 67 177 0.0 2.0 0.00 0.00 0.00 65 1015.7
20260503021558 67 177 0.0 2.0 0.00 0.00 0.00 64 1015.7
20260503021059 68 177 0.0 2.0 0.00 0.00 0.00 65 1015.6
20260503020831 68 177 0.0 2.0 0.00 0.00 0.00 64 1015.6
20260503020558 68 177 0.0 2.0 0.00 0.00 0.00 64 1015.6
20260503020055 68 177 0.0 2.0 0.00 0.00 0.00 63 1015.7
20260503015556 68 266 0.0 2.0 0.00 0.00 0.00 64 1015.7
20260503015052 68 266 0.0 2.0 0.00 0.00 0.00 63 1015.7
20260503014550 68 259 0.0 2.0 0.00 0.00 0.00 63 1015.7
20260503014047 69 259 0.0 2.0 0.00 0.00 0.00 64 1015.7
20260503013542 69 259 0.0 2.0 0.00 0.00 0.00 64 1015.6
20260503013248 69 259 0.0 2.0 0.00 0.00 0.00 63 1015.6
20260503012752 69 259 0.0 2.0 0.00 0.00 0.00 65 1015.7
20260503012038 69 259 0.0 2.0 0.00 0.00 0.00 63 1015.8
20260503011538 69 191 0.0 2.0 0.00 0.00 0.00 64 1015.7
20260503011037 69 191 0.0 2.0 0.00 0.00 0.00 62 1015.7
20260503010536 69 255 0.0 2.0 0.00 0.00 0.00 63 1015.7
20260503010035 69 255 0.0 2.0 0.00 0.00 0.00 64 1015.7
20260503005536 70 255 0.0 2.0 0.00 0.00 0.00 65 1015.7
20260503005247 70 255 0.0 2.0 0.00 0.00 0.00 64 1015.8
20260503004532 70 255 0.0 2.0 0.00 0.00 0.00 64 1015.8
20260503004034 70 255 0.0 2.0 0.00 0.00 0.00 64 1015.9
20260503003746 70 255 0.0 2.0 0.00 0.00 0.00 62 1015.9
20260503003031 70 281 0.0 2.0 0.00 0.00 0.00 66 1015.9
20260503002742 70 279 0.0 2.0 0.00 0.00 0.00 65 1016.0
20260503002029 70 278 0.0 2.0 0.00 0.00 0.00 65 1015.9
20260503001812 71 40 0.0 2.0 0.00 0.00 0.00 64 1015.8
20260503001528 71 40 0.0 2.0 0.00 0.00 0.00 64 1015.8
20260503001241 71 263 0.0 3.0 0.00 0.00 0.00 65 1015.8
20260503000529 71 263 0.0 3.0 0.00 0.00 0.00 64 1015.9
20260503000030 71 265 0.0 3.0 0.00 0.00 0.00 64 1016.0
20260502235806 71 76 0.0 2.0 0.00 0.00 0.00 62 1016.0
20260502235528 71 76 0.0 2.0 0.00 0.00 0.00 62 1016.0
20260502235312 71 76 0.0 2.0 0.00 0.00 0.00 62 1016.1
20260502235029 71 76 0.0 2.0 0.00 0.00 0.00 62 1016.1
20260502234800 71 76 0.0 2.0 0.00 0.00 0.00 63 1016.1
20260502234528 71 76 0.0 2.0 0.00 0.00 0.00 63 1016.1
20260502234029 71 68 0.0 2.0 0.00 0.00 0.00 62 1016.2
20260502233530 71 48 0.0 2.0 0.00 0.00 0.00 63 1016.2
20260502233306 71 48 0.0 2.0 0.00 0.00 0.00 62 1016.3
20260502233029 71 48 0.0 2.0 0.00 0.00 0.00 62 1016.3
20260502232536 71 48 0.0 2.0 0.00 0.00 0.00 60 1016.4
20260502232027 71 48 0.0 2.0 0.00 0.00 0.00 61 1016.4
20260502231524 71 281 0.0 2.0 0.00 0.00 0.00 61 1016.6
20260502231021 71 277 0.0 2.0 0.00 0.00 0.00 60 1016.7
20260502230522 71 259 1.0 2.0 0.00 0.00 0.00 60 1016.8
20260502230309 71 259 0.0 2.0 0.00 0.00 0.00 60 1016.9
20260502230032 71 259 0.0 2.0 0.00 0.00 0.00 60 1016.9
20260502225522 72 264 0.0 2.0 0.00 0.00 0.00 62 1017.0
20260502225021 72 264 0.0 2.0 0.00 0.00 0.00 59 1017.0
20260502224521 72 264 1.0 2.0 0.00 0.00 0.00 62 1017.1
20260502224022 72 264 1.0 2.0 0.00 0.00 0.00 61 1017.1
20260502223523 72 256 0.0 2.0 0.00 0.00 0.00 61 1017.2
20260502223256 72 253 0.0 2.0 0.00 0.00 0.00 61 1017.2
20260502223018 72 253 0.0 2.0 0.00 0.00 0.00 61 1017.2
20260502222517 72 84 1.0 2.0 0.00 0.00 0.00 60 1017.3
20260502222018 72 278 0.0 2.0 0.00 0.00 0.00 60 1017.3
20260502221517 72 60 0.0 2.0 0.00 0.00 0.00 61 1017.3
20260502221018 72 60 0.0 2.0 0.00 0.00 0.00 63 1017.4
20260502220531 72 317 1.0 3.0 0.00 0.00 0.00 62 1017.5
20260502220521 72 87 0.0 2.0 0.00 0.00 0.00 62 1017.4
20260502215518 72 271 1.0 3.0 0.00 0.00 0.00 62 1017.7
20260502215019 71 259 0.0 2.0 0.00 0.00 0.00 62 1017.6
20260502214727 71 259 0.0 2.0 0.00 0.00 0.00 62 1017.7
20260502214251 71 268 0.0 2.0 0.00 0.00 0.00 62 1017.9
20260502214014 71 268 0.0 2.0 0.00 0.00 0.00 62 1017.9
20260502213514 71 267 0.0 2.0 0.00 0.00 0.00 63 1017.8
20260502213251 71 267 0.0 2.0 0.00 0.00 0.00 63 1017.8
20260502213015 71 267 0.0 2.0 0.00 0.00 0.00 63 1017.8
20260502212511 71 279 1.0 2.0 0.00 0.00 0.00 63 1017.9
20260502212011 71 279 1.0 2.0 0.00 0.00 0.00 62 1017.9
20260502211751 71 78 1.0 2.0 0.00 0.00 0.00 63 1018.0
20260502211511 71 78 1.0 2.0 0.00 0.00 0.00 63 1018.0
20260502211222 71 273 1.0 2.0 0.00 0.00 0.00 63 1018.0
20260502210508 71 267 0.0 2.0 0.00 0.00 0.00 62 1018.0
20260502210223 71 80 0.0 2.0 0.00 0.00 0.00 65 1018.1
20260502205505 70 275 0.0 2.0 0.00 0.00 0.00 64 1018.1
20260502205003 70 78 1.0 3.0 0.00 0.00 0.00 64 1018.1
20260502204503 70 45 1.0 3.0 0.00 0.00 0.00 66 1018.2